Regional Weather Roundup
Issued by NWS Kansas City/Pleasant Hill, MO

Home | Current Version | Previous Version | Graphics & Text | Print | Product List | Glossary Off
Versions: 1 2 3 4 5 6 7 8 9 10 11 12 13 14 15 16 17 18 19 20 21 22 23 24 25 26 27 28

000
ASUS43 KEAX 240310
RWREAX

WEATHER ROUNDUP FOR EASTERN KANSAS AND NORTHWEST MISSOURI
NATIONAL WEATHER SERVICE KANSAS CITY/PLEASANT HILL MO
1000 PM CDT SAT JUL 23 2016

KSZ040-057-103>105-MOZ028-029-037-043-240400-
...KANSAS CITY METROPOLITAN AREA...

CITY           SKY/WX    TMP DP  RH WIND       PRES   REMARKS
K.C. INTL      CLOUDY    82  73  74 S9        29.87R
K.C. DOWNTOWN  MOCLDY    91  71  51 S9        29.85R HX  97
LEES SUMMIT    CLOUDY    89  72  56 S13       29.89R HX  96
OLATHE - IXD   CLOUDY    85  74  69 S9        29.88R HX  92
OLATHE - OJC   MOCLDY    84  71  65 S9        29.89R
LAWRENCE       PTCLDY    81  74  79 SE5       29.86R

$$

MOZ001>008-011>017-020>025-030>033-038>040-044>046-053-054-240400-
...NORTHERN AND CENTRAL MISSOURI...

CITY           SKY/WX    TMP DP  RH WIND       PRES   REMARKS
ST. JOSEPH     PTCLDY    84  73  69 S6        29.84R HX  90
MOSBY          CLOUDY    86  73  66 SE3       29.86R HX  93
WHITEMAN AFB   CLOUDY    83  77  81 S6        29.89R HX  91
CLINTON        MOCLDY    84  77  79 CALM      29.91R HX  94
SEDALIA        CLEAR     83  77  82 S6        29.92R HX  92
WARSAW         NOT AVBL
CHILLICOTHE      N/A     87  78  74 S6        29.88R HX 100
KIRKSVILLE     CLOUDY    81  77  88 S7        29.90R

$$

MOZ041-047>049-056>058-063>065-088>090-097-240400-
...EASTERN AND SOUTHERN MISSOURI...

CITY           SKY/WX    TMP DP  RH WIND       PRES   REMARKS
ST. LOUIS INTL PTCLDY    89  74  60 S7        29.95R HX  98
SPIRIT OF STL  CLEAR     85  76  74 SE5       29.92R HX  94
COLUMBIA       CLEAR     84  77  79 SE5       29.92R HX  94
JEFFERSON CITY CLEAR     82  78  88 CALM      29.90R HX  91
ROLLA          PTCLDY    84  77  79 SE6       29.94R HX  94
OSAGE BEACH    CLEAR     81  79  94 CALM      29.93R HX  90
SPRINGFIELD    CLEAR     85  73  67 S7        29.94S HX  91
BRANSON        PTCLDY    84  75  74 CALM      29.97R HX  92
JOPLIN         CLEAR     85  74  69 SE6       29.92S HX  92
WEST PLAINS    PTCLDY    81  71  71 S3        30.00R

$$

IAZ060-094-KSZ022-034>040-054-083-096-NEZ052-066-093-240400-
...KANSAS...SOUTHEAST NEBRASKA AND IOWA...

CITY           SKY/WX    TMP DP  RH WIND       PRES   REMARKS
TOPEKA         CLOUDY    87  70  56 S7        29.85R HX  92
MANHATTAN      PTCLDY    89  71  55 S14G22    29.82R HX  95
EMPORIA        CLOUDY    86  70  58 S12       29.87R HX  90
CHANUTE        PTCLDY    85  72  65 SE8       29.89R HX  91
WICHITA        PTCLDY    91  68  46 S18       29.86R HX  95
OMAHA          CLOUDY    86  76  71 S14       29.78R HX  96
LINCOLN        CLOUDY    84  72  67 S5        29.80R
FALLS CITY     CLOUDY    85  74  69 S10       29.82R HX  92
LAMONI         CLOUDY    81  77  88 S7        29.86R
DES MOINES     PTCLDY    84  77  79 S7        29.82R HX  94

$$





USA.gov is the U.S. government's official web portal to all federal, state and local government web resources and services.